| time (UTC) | temp C | wind direction | speed KPH | gust KPH | rain 1hr cm | rain 24hr cm | rain mn cm | humidity % | barometer mb |
| 20260505080733 | 11 | 11 | 14.5 | 17.7 | 0.00 | 0.00 | 0.00 | 88 | 1003.3 |
| 20260505073734 | 11 | 5 | 9.7 | 12.9 | 0.00 | 0.00 | 0.00 | 89 | 1003.3 |
| 20260505070733 | 11 | 12 | 12.9 | 24.1 | 0.00 | 0.00 | 0.00 | 88 | 1003.2 |
| 20260505063734 | 11 | 5 | 9.7 | 19.3 | 0.00 | 0.00 | 0.00 | 89 | 1003.5 |
| 20260505060734 | 11 | 9 | 14.5 | 19.3 | 0.00 | 0.00 | 0.00 | 89 | 1003.6 |
| 20260505053733 | 11 | 18 | 12.9 | 17.7 | 0.00 | 0.00 | 0.00 | 88 | 1003.5 |
| 20260505050733 | 11 | 16 | 14.5 | 25.7 | 0.00 | 0.00 | 0.00 | 88 | 1003.5 |
| 20260505040732 | 11 | 5 | 11.3 | 19.3 | 0.00 | 0.00 | 0.00 | 88 | 1003.6 |
| 20260505033732 | 11 | 4 | 9.7 | 19.3 | 0.00 | 0.00 | 0.00 | 88 | 1003.9 |
| 20260505030733 | 11 | 18 | 11.3 | 17.7 | 0.00 | 0.00 | 0.00 | 88 | 1004.1 |
| 20260505025922 | 11 | 22 | 12.9 | 14.5 | 0.00 | 0.00 | 0.00 | 88 | 1004.1 |
| 20260505022921 | 11 | 10 | 8.0 | 12.9 | 0.00 | 0.00 | 0.00 | 89 | 1004.1 |
| 20260505015922 | 11 | 10 | 12.9 | 16.1 | 0.00 | 0.00 | 0.00 | 89 | 1004.2 |
| 20260505012922 | 12 | 10 | 11.3 | 12.9 | 0.00 | 0.00 | 0.00 | 90 | 1004.3 |
| 20260505005921 | 12 | 2 | 6.4 | 8.0 | 0.00 | 0.00 | 0.00 | 90 | 1004.6 |
| 20260505002922 | 12 | 11 | 8.0 | 9.7 | 0.00 | 0.00 | 0.00 | 90 | 1004.7 |
| 20260504235921 | 11 | 349 | 4.8 | 9.7 | 0.00 | 0.00 | 0.00 | 89 | 1004.7 |
| 20260504232921 | 11 | 11 | 3.2 | 9.7 | 0.00 | 0.00 | 0.00 | 89 | 1004.8 |
| 20260504225921 | 11 | 15 | 4.8 | 9.7 | 0.00 | 0.00 | 0.00 | 89 | 1005.2 |
| 20260504222922 | 11 | 352 | 1.6 | 3.2 | 0.00 | 0.00 | 0.00 | 89 | 1005.5 |
| 20260504215921 | 11 | 16 | 0.0 | 3.2 | 0.00 | 0.00 | 0.00 | 88 | 1005.5 |
| 20260504212921 | 11 | 15 | 6.4 | 9.7 | 0.00 | 0.00 | 0.00 | 87 | 1005.9 |
| 20260504205921 | 11 | 3 | 9.7 | 9.7 | 0.00 | 0.00 | 0.00 | 86 | 1006.2 |
| 20260504202921 | 11 | 5 | 8.0 | 12.9 | 0.00 | 0.00 | 0.00 | 84 | 1006.2 |
| 20260504195921 | 12 | 19 | 6.4 | 8.0 | 0.00 | 0.00 | 0.00 | 83 | 1006.2 |
| 20260504192921 | 12 | 351 | 3.2 | 6.4 | 0.00 | 0.00 | 0.00 | 83 | 1006.1 |
| 20260504185921 | 12 | 353 | 6.4 | 9.7 | 0.00 | 0.00 | 0.00 | 82 | 1006.1 |
| 20260504182921 | 12 | 90 | 4.8 | 8.0 | 0.00 | 0.00 | 0.00 | 81 | 1005.9 |
| 20260504175922 | 13 | 353 | 12.9 | 19.3 | 0.00 | 0.00 | 0.00 | 79 | 1005.5 |
| 20260504172921 | 14 | 355 | 12.9 | 16.1 | 0.00 | 0.00 | 0.00 | 77 | 1005.7 |